Weather History for Chanute, KS

Change the Weather History Date:

Friday, September 20, 2013

  Actual Average Record
Temperature  
Mean Temperature 62 °F 68 °F  
Max Temperature 72 °F 79 °F 101 °F (1954)
Min Temperature 51 °F 57 °F 35 °F (1918)
Degree Days  
Heating Degree Days 3 2  
Month to date heating degree days 3 15  
Since 1 July heating degree days 3 16  
Cooling Degree Days 0 5  
Month to date cooling degree days 224 158  
Year to date cooling degree days 1491 1462  
Growing Degree Days 12 (Base 50)    
Moisture  
Dew Point 56 °F    
Average Humidity 67    
Maximum Humidity 89    
Minimum Humidity 44    
Precipitation  
Precipitation T in 0.13 in 4.02 in (1947)
Month to date precipitation 2.16 2.28  
Year to date precipitation 36.94 32.77  
Sea Level Pressure  
Sea Level Pressure 29.99 in    
Wind  
Wind Speed 7 mph (North)    
Max Wind Speed 17 mph    
Max Gust Speed 52 mph    
Visibility 10 miles    
Events Rain    
T = Trace of Precipitation, MM = Missing Value Source: NWS Daily Summary

Daily Weather History Graph

Daily Weather History Graph

Search for Another Location

Airport:

Trip Planner

Search our weather history database for the weather conditions in past years. The results will help you decide how hot, cold, wet, or windy it might be!

Date:

Astronomy

Sep. 20, 2013 Rise Set
Actual Time 7:08 AM CDT 7:21 PM CDT
Civil Twilight 6:42 AM CDT 7:47 PM CDT
Nautical Twilight 6:11 AM CDT 8:18 PM CDT
Astronomical Twilight 5:40 AM CDT 8:49 PM CDT
Moon 7:58 PM CDT (9/20) 8:21 AM CDT (9/20)
Length of Visible Light 13h 05m
Length of Day
12h 13m
Full, 98% of the Moon is Illuminated
Sep 20
Full
Sep 26
Last Quarter
Oct 4
New
Oct 11
First Quarter
Oct 18
Full

Hourly Weather History & Observations

Time (CDT) Temp. Dew Point Humidity Pressure Visibility Wind Dir Wind Speed Gust Speed Precip Events Conditions
12:52 AM 68.0 °F 64.9 °F 90% 29.90 in 10.0 mi West 5.8 mph - N/A   Scattered Clouds
1:47 AM 68.0 °F 64.4 °F 88% 29.95 in 10.0 mi North 4.6 mph - N/A   Mostly Cloudy
1:52 AM 68.0 °F 64.9 °F 90% 29.92 in 10.0 mi NW 3.5 mph - N/A   Mostly Cloudy
2:00 AM 68.0 °F 64.4 °F 88% 29.97 in 10.0 mi WNW 3.5 mph - N/A   Overcast
2:52 AM 68.0 °F 64.9 °F 90% 29.94 in 10.0 mi NNW 3.5 mph - N/A   Overcast
3:11 AM 68.0 °F 64.4 °F 88% 29.98 in 10.0 mi Calm Calm - N/A   Overcast
3:52 AM 69.1 °F 64.9 °F 87% 29.96 in 10.0 mi Calm Calm - N/A   Overcast
3:59 AM 69.8 °F 64.4 °F 83% 29.99 in 10.0 mi NNE 3.5 mph - N/A   Overcast
4:11 AM 69.8 °F 64.4 °F 83% 29.99 in 10.0 mi North 8.1 mph - N/A   Overcast
4:52 AM 66.9 °F 61.0 °F 81% 29.97 in 10.0 mi North 6.9 mph - 0.00 in   Overcast
5:00 AM 66.2 °F 60.8 °F 83% 29.99 in 10.0 mi North 6.9 mph - N/A   Overcast
5:52 AM 64.0 °F 55.9 °F 75% 29.98 in 10.0 mi North 10.4 mph - 0.00 in Rain Light Rain
6:52 AM 63.0 °F 55.0 °F 75% 30.01 in 10.0 mi NNW 6.9 mph - 0.00 in   Mostly Cloudy
7:52 AM 62.1 °F 55.0 °F 78% 30.02 in 10.0 mi North 8.1 mph - N/A   Mostly Cloudy
8:52 AM 63.0 °F 54.0 °F 72% 30.03 in 10.0 mi North 9.2 mph - N/A   Mostly Cloudy
9:52 AM 64.0 °F 53.1 °F 67% 30.04 in 10.0 mi North 12.7 mph 21.9 mph N/A   Clear
10:52 AM 64.0 °F 51.1 °F 63% 30.04 in 10.0 mi North 13.8 mph 21.9 mph N/A   Clear
11:52 AM 66.0 °F 51.1 °F 59% 30.04 in 10.0 mi North 11.5 mph - N/A   Clear
12:52 PM 68.0 °F 50.0 °F 52% 30.04 in 10.0 mi North 13.8 mph - N/A   Clear
1:52 PM 71.1 °F 51.1 °F 49% 30.02 in 10.0 mi NNE 10.4 mph - N/A   Clear
2:52 PM 72.0 °F 48.9 °F 44% 29.99 in 10.0 mi North 11.5 mph - N/A   Clear
3:52 PM 72.0 °F 48.9 °F 44% 29.98 in 10.0 mi North 11.5 mph 24.2 mph N/A   Clear
4:52 PM 71.1 °F 48.9 °F 45% 29.97 in 10.0 mi North 10.4 mph - N/A   Clear
5:52 PM 70.0 °F 51.1 °F 51% 29.96 in 10.0 mi North 6.9 mph - N/A   Clear
6:52 PM 68.0 °F 51.1 °F 55% 29.96 in 10.0 mi NNW 4.6 mph - N/A   Clear
7:52 PM 66.0 °F 50.0 °F 56% 29.98 in 10.0 mi NNW 3.5 mph - N/A   Clear
8:52 PM 57.9 °F 52.0 °F 81% 29.99 in 10.0 mi Calm Calm - N/A   Clear
9:52 PM 57.0 °F 51.1 °F 81% 30.00 in 10.0 mi Calm Calm - N/A   Clear
10:52 PM 53.1 °F 50.0 °F 89% 30.00 in 10.0 mi Calm Calm - N/A   Clear
11:52 PM 53.1 °F 48.9 °F 86% 30.00 in 10.0 mi Calm Calm - N/A   Clear